Jackson, MI

6:22 AM EST on December 14, 2019 (GMT -0500)
Jackson County-Reynolds

Weather History for KJXN - May, 2019

Change the Weather History Date:

Sunday, May 19, 2019

  Actual Average Record
Temperature  
Mean Temperature 66 °F 59 °F  
Max Temperature 75 °F 70 °F 91 °F (1977)
Min Temperature 57 °F 47 °F 28 °F (2002)
Degree Days  
Heating Degree Days 0 8  
Month to date heating degree days 190 187  
Since 1 July heating degree days 6587 6533  
Cooling Degree Days 1 1  
Month to date cooling degree days 1 12  
Year to date cooling degree days 1 18  
Growing Degree Days 15 (Base 50)    
Moisture  
Dew Point 61 °F    
Average Humidity 84    
Maximum Humidity 100    
Minimum Humidity 68    
Precipitation  
Precipitation 0.26 in 0.12 in 1.23 in (1949)
Month to date precipitation 2.01 1.97  
Year to date precipitation 10.25 9.26  
Sea Level Pressure  
Sea Level Pressure 29.71 in    
Wind  
Wind Speed 11 mph (South)    
Max Wind Speed 29 mph    
Max Gust Speed 44 mph    
Visibility 9 miles    
Events Rain    
T = Trace of Precipitation, MM = Missing Value Source: NWS Daily Summary

Daily Weather History Graph

Daily Weather History Graph

Search for Another Location

Airport or City:

Astronomy

May. 19, 2019 Rise Set
Actual Time 6:13 AM EDT 8:56 PM EDT
Civil Twilight 5:40 AM EDT 9:28 PM EDT
Nautical Twilight 4:59 AM EDT 10:09 PM EDT
Astronomical Twilight 4:13 AM EDT 10:56 PM EDT
Moon 9:55 PM EDT (5/19) 6:58 AM EDT (5/19)
Length of Visible Light 15h 48m
Length of Day
14h 43m
Full, 99% of the Moon is Illuminated
May 19
Full
May 26
Last Quarter
Jun 3
New
Jun 10
First Quarter
Jun 17
Full

Hourly Weather History & Observations

Time (EDT) Temp. Dew Point Humidity Pressure Visibility Wind Dir Wind Speed Gust Speed Precip Events Conditions
12:56 AM 60.1 °F 59.0 °F 96% 29.81 in 5.0 mi Calm Calm - N/A   Clear
1:56 AM 57.0 °F 57.0 °F 100% 29.81 in 6.0 mi NE 3.5 mph - N/A   Clear
2:56 AM 57.9 °F 57.0 °F 97% 29.78 in 6.0 mi NE 3.5 mph - N/A   Clear
3:56 AM 59.0 °F 57.0 °F 93% 29.78 in 6.0 mi ENE 3.5 mph - N/A   Scattered Clouds
4:56 AM 60.1 °F 57.9 °F 93% 29.77 in 7.0 mi ESE 5.8 mph - N/A   Scattered Clouds
5:56 AM 60.1 °F 57.9 °F 93% 29.76 in 7.0 mi ESE 6.9 mph - N/A   Clear
6:56 AM 61.0 °F 59.0 °F 93% 29.74 in 6.0 mi ESE 6.9 mph - N/A   Clear
7:56 AM 66.0 °F 62.1 °F 87% 29.73 in 9.0 mi SSE 9.2 mph - N/A   Mostly Cloudy
8:56 AM 72.0 °F 64.0 °F 76% 29.73 in 10.0 mi South 12.7 mph 24.2 mph N/A   Scattered Clouds
9:56 AM 72.0 °F 64.0 °F 76% 29.72 in 10.0 mi South 11.5 mph - N/A   Scattered Clouds
10:39 AM 72.0 °F 64.0 °F 76% 29.73 in 10.0 mi South 13.8 mph - N/A   Mostly Cloudy
10:56 AM 73.0 °F 64.9 °F 76% 29.71 in 10.0 mi South 10.4 mph - N/A   Overcast
11:15 AM 73.0 °F 64.0 °F 73% 29.73 in 10.0 mi South 13.8 mph 27.6 mph N/A   Overcast
11:22 AM 73.0 °F 64.9 °F 76% 29.73 in 10.0 mi South 12.7 mph 24.2 mph N/A   Overcast
11:56 AM 73.9 °F 64.9 °F 73% 29.71 in 10.0 mi South 12.7 mph 21.9 mph N/A   Mostly Cloudy
12:56 PM 73.0 °F 63.0 °F 71% 29.70 in 10.0 mi SSW 24.2 mph 39.1 mph N/A   Overcast
1:56 PM 68.0 °F 61.0 °F 78% 29.71 in 10.0 mi South 11.5 mph 23.0 mph 0.01 in   Overcast
2:56 PM 68.0 °F 61.0 °F 78% 29.69 in 10.0 mi South 13.8 mph 21.9 mph N/A   Overcast
3:56 PM 66.9 °F 62.1 °F 84% 29.69 in 10.0 mi South 11.5 mph - 0.03 in Rain Light Rain
4:56 PM 64.9 °F 59.0 °F 81% 29.67 in 10.0 mi SSE 12.7 mph - 0.01 in   Overcast
5:56 PM 66.9 °F 59.0 °F 76% 29.66 in 10.0 mi South 15.0 mph 25.3 mph N/A   Mostly Cloudy
6:03 PM 68.0 °F 59.0 °F 73% 29.67 in 10.0 mi South 20.7 mph 32.2 mph N/A   Mostly Cloudy
6:11 PM 68.0 °F 59.0 °F 73% 29.67 in 10.0 mi South 18.4 mph 34.5 mph N/A   Scattered Clouds
6:56 PM 66.9 °F 59.0 °F 76% 29.66 in 10.0 mi SSE 18.4 mph 33.4 mph N/A   Scattered Clouds
7:07 PM 66.9 °F 60.1 °F 79% 29.67 in 10.0 mi South 13.8 mph 26.5 mph N/A   Mostly Cloudy
7:56 PM 66.0 °F 60.1 °F 81% 29.64 in 10.0 mi SSE 18.4 mph 27.6 mph 0.00 in   Mostly Cloudy
8:25 PM 66.0 °F 60.1 °F 81% 29.66 in 10.0 mi South 13.8 mph 21.9 mph N/A   Mostly Cloudy
8:56 PM 66.0 °F 60.1 °F 81% 29.68 in 10.0 mi SW 11.5 mph - 0.00 in Rain Light Rain
9:06 PM 63.0 °F 61.0 °F 93% 29.71 in 1.8 mi West 12.7 mph 24.2 mph 0.11 in Rain Heavy Rain
9:18 PM 62.1 °F 61.0 °F 96% 29.71 in 3.0 mi SW 6.9 mph 19.6 mph 0.19 in Rain Light Rain
9:56 PM 62.1 °F 60.1 °F 93% 29.70 in 10.0 mi SSW 8.1 mph - 0.21 in   Unknown
10:56 PM 60.1 °F 59.0 °F 96% 29.71 in 10.0 mi SW 9.2 mph - N/A   Mostly Cloudy
11:56 PM 59.0 °F 57.9 °F 96% 29.72 in 10.0 mi SSW 6.9 mph - N/A   Clear